Theta_e
278 278 278 278 277 277 277 277 277 277 277 277 276 276 276 276 276 276 276 276 275 274 274 274 274 274 274 274 273 273 272 272 272 272 272 272 273 273 273 272 272 273 273 273 273 273 274 274 275 275 275 275 275 275 275 275 275 275 274 275 275 275
278 278 277 276 276 276 276 276 276 276 276 276 275 276 275 275 275 275 274 274 274 273 274 273 273 273 273 272 272 272 271 271 271 271 271 272 272 272 272 272 272 272 272 272 272 272 273 273 274 274 274 275 274 274 274 274 274 274 274 274 274 275
277 277 277 276 275 276 275 275 275 275 275 275 276 275 274 274 274 274 273 273 273 273 272 272 272 271 272 271 271 271 271 271 271 271 271 271 271 271 271 271 271 271 272 272 272 272 272 272 273 274 274 273 273 273 273 273 273 273 273 273 273 274
277 276 276 275 274 275 274 275 275 274 274 274 274 274 273 273 273 272 272 272 272 271 271 271 271 271 270 270 270 270 270 270 270 271 271 270 270 271 271 271 271 271 271 271 271 271 271 272 272 272 273 272 271 271 271 272 272 272 272 272 272 272
276 275 275 274 274 275 274 274 274 274 273 273 273 273 272 272 272 272 272 271 271 270 270 270 270 270 269 269 269 269 269 269 270 270 270 270 270 270 270 270 270 270 270 269 269 269 270 270 271 271 271 270 270 269 270 270 270 271 271 271 271 271
275 275 274 274 274 274 274 274 274 273 273 273 272 272 272 271 271 271 271 270 270 270 269 269 269 269 268 268 268 268 269 269 269 269 269 269 269 269 269 269 269 268 268 267 267 268 268 268 269 269 269 269 269 268 268 269 269 269 270 270 270 271
274 275 275 274 274 274 274 274 273 273 273 272 272 271 271 271 271 270 270 270 269 269 268 268 268 268 268 268 268 268 268 268 268 269 268 268 268 267 267 267 267 266 266 266 266 266 267 267 267 267 267 267 268 268 267 268 268 268 269 269 269 271
275 275 275 275 274 274 274 274 273 273 272 272 271 271 270 270 270 270 269 269 268 268 267 268 268 267 267 267 267 268 268 268 268 268 267 267 266 265 265 265 265 265 265 265 265 265 265 266 266 266 266 266 267 267 267 267 267 267 268 268 269 269
274 275 275 275 274 274 274 273 273 272 271 271 270 270 270 270 269 269 268 268 267 267 267 267 267 267 267 267 267 267 267 267 266 266 265 265 264 264 263 264 264 264 264 264 264 265 265 265 265 265 265 266 266 266 266 266 267 267 267 268 268 269
275 275 275 274 274 274 273 273 272 271 271 270 270 269 269 269 268 268 267 267 266 267 267 267 267 267 267 267 267 266 266 265 265 264 264 263 262 262 262 263 263 263 264 264 264 264 264 264 265 265 265 266 266 266 266 266 267 267 267 268 269 269
275 275 274 274 274 273 273 272 271 271 270 270 269 269 268 268 267 267 266 266 266 266 266 266 266 267 266 266 265 265 264 263 263 262 262 262 262 262 262 262 262 262 262 263 264 264 264 264 265 265 265 266 266 267 267 268 268 268 268 268 269 270
275 275 274 274 274 273 272 271 270 270 269 268 268 268 268 267 267 266 266 266 266 266 266 266 266 266 265 264 264 263 263 262 261 261 260 261 261 261 262 262 262 262 262 262 263 264 264 265 265 267 271 272 269 269 270 270 270 270 270 270 270 270
275 275 274 274 274 273 272 271 270 269 268 268 267 267 267 266 265 265 265 265 265 265 265 265 265 264 263 263 262 261 261 260 260 260 260 260 260 260 261 261 262 262 263 263 264 264 264 265 265 269 272 273 274 271 270 270 270 271 271 271 271 271
275 275 274 274 274 272 271 270 269 268 267 267 267 266 266 265 265 264 264 265 264 265 264 264 263 262 262 261 260 260 259 259 259 259 259 259 259 260 261 261 262 263 263 264 263 263 264 264 268 271 272 273 274 274 271 270 270 271 271 272 272 272
275 275 275 275 273 272 271 270 268 268 267 266 266 266 265 264 264 264 264 264 264 264 263 262 262 261 260 260 259 259 258 258 258 258 258 259 260 260 260 261 262 262 263 263 263 263 264 264 268 271 272 273 274 275 274 271 271 271 271 272 273 273
276 276 275 275 273 272 270 269 268 267 267 266 265 264 264 264 264 263 263 263 263 262 262 261 260 259 259 259 258 258 258 257 258 258 259 259 260 260 261 261 262 262 262 262 262 263 263 263 267 271 272 273 274 275 275 272 272 272 272 272 273 273
276 275 274 273 271 270 269 268 267 266 265 265 264 264 263 263 263 263 263 262 262 261 260 260 259 258 258 257 257 257 257 257 258 258 259 259 260 260 260 261 261 261 261 261 262 262 262 263 269 271 273 273 274 275 275 272 272 271 271 272 273 274
275 275 274 272 269 268 268 267 266 265 264 264 264 263 263 263 262 262 262 261 261 260 260 259 258 257 257 257 257 256 257 257 258 258 259 259 260 261 261 261 261 261 261 261 261 261 261 263 269 271 272 274 275 276 272 271 271 271 271 272 273 274
276 275 271 269 268 267 267 266 265 264 263 263 263 263 263 262 262 262 261 260 260 259 258 258 257 256 256 256 256 256 256 257 257 258 259 259 259 260 260 260 260 261 261 261 261 261 261 262 266 271 273 274 275 274 271 271 271 271 271 272 273 273
274 270 269 268 267 267 266 265 264 263 262 262 262 262 262 262 261 261 260 259 259 258 258 257 256 256 256 255 255 256 257 257 258 258 259 259 258 259 259 260 260 261 261 261 261 261 261 262 266 271 273 274 275 274 271 271 271 271 271 272 272 273
270 269 268 267 266 265 265 264 264 263 262 262 262 262 261 261 260 260 259 259 259 258 257 256 256 256 255 255 255 256 255 256 257 258 259 259 259 259 259 260 260 260 261 261 261 265 264 263 266 271 272 274 275 273 272 271 271 270 271 271 271 273
269 267 267 266 265 265 264 263 263 263 262 262 262 261 260 260 260 260 259 258 257 257 256 256 255 255 255 255 255 255 256 257 257 258 258 258 259 258 259 259 260 260 261 262 263 263 264 265 266 268 273 274 275 275 272 271 270 270 270 271 271 272
268 267 267 266 265 264 263 263 263 262 262 262 261 260 260 260 259 258 258 257 256 256 255 255 255 254 254 255 255 256 256 257 257 257 257 257 258 258 258 259 260 261 263 265 266 266 266 267 268 269 273 274 275 275 274 271 271 271 271 272 272 272
267 266 265 264 263 263 263 263 262 261 261 261 260 260 260 259 258 257 256 255 255 255 254 253 254 254 254 254 255 255 255 257 257 257 257 257 257 257 258 259 262 263 264 265 266 266 267 269 271 269 271 273 274 275 276 272 272 273 272 271 271 271
266 265 264 263 263 262 263 263 262 261 261 260 260 259 259 257 257 256 255 254 254 253 253 253 253 253 254 254 255 255 255 256 256 256 256 256 257 257 258 261 263 263 263 265 266 267 267 268 269 271 270 273 274 275 275 276 274 276 273 271 270 271
265 264 263 262 262 262 263 262 261 260 260 260 259 258 257 256 255 254 254 253 253 252 252 252 253 253 253 253 254 254 254 254 255 255 256 256 257 258 259 261 262 263 264 264 265 266 267 268 268 270 272 271 273 275 275 276 276 276 273 272 271 271
263 262 262 262 262 262 262 262 261 260 259 259 259 257 255 254 253 252 252 251 251 251 251 252 253 253 252 253 253 253 254 254 254 254 256 256 257 259 260 261 262 263 264 264 264 265 266 267 268 268 270 272 273 274 275 275 275 275 275 271 271 272
263 262 261 261 261 261 261 261 261 259 259 258 258 256 255 253 251 251 250 250 251 251 251 252 252 253 253 253 253 253 253 254 254 255 255 257 258 259 260 260 262 264 263 264 264 265 265 267 267 267 268 270 271 272 273 274 274 274 274 273 272 274
261 261 260 259 260 259 259 259 260 259 258 257 256 255 253 251 251 251 251 250 250 251 251 252 253 253 253 253 253 253 254 254 254 255 257 258 259 259 260 261 263 263 263 263 264 264 265 266 266 267 268 269 269 269 270 270 270 272 272 271 270 272
262 260 259 259 259 259 258 258 257 257 256 256 255 253 252 251 252 250 250 250 251 251 251 251 254 253 253 252 252 253 253 254 255 256 258 259 260 260 261 263 263 263 263 263 264 264 264 265 266 266 267 268 269 269 269 269 269 268 269 269 270 269
261 260 260 259 258 258 257 256 256 256 255 254 253 252 252 252 252 251 250 251 251 251 251 251 251 252 252 252 251 252 253 254 255 257 259 262 263 263 264 264 264 264 265 265 264 264 264 265 265 267 272 270 272 269 268 267 268 268 269 271 273 268
261 260 259 258 258 257 256 255 255 255 255 253 252 252 251 251 250 250 251 251 251 250 251 251 252 252 252 252 252 252 253 257 262 262 261 261 265 268 269 268 265 265 266 265 266 266 265 265 267 272 273 273 273 273 272 272 272 272 271 272 271 268
261 260 258 257 257 256 255 254 254 254 254 253 252 252 251 251 251 251 251 251 250 252 251 251 252 252 252 252 252 252 252 253 254 260 263 265 266 266 268 268 268 269 269 267 265 267 271 271 272 272 272 272 272 272 272 271 271 271 272 272 266 263
260 259 258 257 256 255 254 254 254 253 253 253 252 252 251 251 251 251 251 251 251 253 253 252 252 252 251 251 252 252 252 251 252 253 260 264 264 265 266 267 267 268 268 269 268 267 266 269 270 271 271 271 272 271 271 270 269 270 270 270 268 262
260 259 258 256 255 255 254 253 253 253 253 252 252 251 250 251 251 251 250 251 252 252 253 252 252 252 251 250 250 250 250 251 250 250 251 254 262 264 264 264 265 266 267 268 269 269 270 270 270 271 271 271 271 270 269 269 267 268 269 268 263 261
260 258 257 256 255 254 253 253 252 252 252 252 252 251 250 251 251 251 251 251 252 252 252 252 252 251 251 251 251 250 252 251 251 250 250 250 250 252 257 261 263 264 265 266 268 268 270 270 269 270 270 270 269 269 268 267 262 267 268 265 260 261
258 257 256 255 254 254 253 253 253 252 252 251 251 250 250 250 251 251 252 253 253 252 252 253 253 252 251 250 250 251 251 250 251 252 250 249 249 249 250 251 253 257 262 262 263 266 269 269 269 269 269 269 269 268 267 263 257 256 257 258 258 260
257 256 255 255 254 254 253 252 252 252 251 250 250 250 250 251 252 252 253 253 253 253 253 252 251 252 250 250 251 252 251 252 251 250 249 250 250 249 249 250 251 252 257 262 263 266 267 268 267 267 267 267 267 266 264 255 255 255 255 256 257 258
Wind_Speed
14 15 15 12 11 11 12 11 9 9 8 8 9 9 8 7 5 5 4 4 3 3 3 3 3 3 4 4 5 6 7 8 8 8 9 10 10 10 11 12 12 12 12 12 13 13 14 14 14 15 14 15 15 16 15 16 16 16 18 16 16 14
14 14 14 14 13 13 11 11 9 11 9 9 8 6 6 6 6 6 5 4 3 3 3 3 3 3 4 4 6 6 7 8 8 9 10 10 10 10 12 12 13 13 14 13 13 14 14 14 14 15 15 15 14 15 14 16 16 19 17 18 15 15
12 11 10 9 9 8 10 12 13 11 9 9 9 10 8 7 6 5 4 3 3 3 3 3 3 4 4 5 6 7 7 7 8 8 9 10 11 11 12 12 13 13 13 14 14 14 14 15 15 13 14 14 15 14 16 17 18 18 19 15 19 17
10 9 8 9 10 11 12 11 11 11 11 10 9 8 7 7 6 5 4 3 3 3 3 3 2 3 4 6 6 6 6 7 8 9 10 11 11 11 12 13 12 12 13 14 14 14 15 15 15 15 13 15 15 16 13 14 16 17 18 17 18 17
10 10 12 13 13 12 12 12 12 12 12 10 8 8 7 7 5 4 4 3 3 3 3 2 2 3 5 6 5 6 7 8 9 9 10 11 11 11 10 12 12 13 13 14 14 15 15 15 15 14 14 15 16 17 16 15 16 17 17 18 19 18
8 10 13 13 12 14 14 12 11 10 9 8 7 8 7 6 5 4 4 3 3 3 3 3 3 4 5 5 4 6 7 8 9 9 10 11 10 11 11 11 13 13 13 14 14 14 15 15 15 15 15 15 16 17 18 17 17 17 18 18 19 18
13 14 12 12 10 12 11 13 12 9 8 7 7 7 6 5 5 4 4 3 3 3 3 3 3 4 4 4 5 7 7 8 8 8 9 10 10 11 11 11 11 12 12 12 14 15 15 15 15 16 16 15 15 17 18 18 17 17 18 18 18 18
11 10 12 10 11 10 13 11 10 9 7 7 6 7 6 6 5 5 4 3 3 3 3 3 3 3 4 5 5 6 7 8 8 9 8 9 11 11 11 12 11 11 13 13 14 15 16 15 15 16 17 17 17 17 17 17 17 17 17 18 18 18
14 14 13 12 10 11 10 11 10 9 8 8 7 6 6 5 5 5 4 4 3 3 2 3 3 3 4 4 5 6 7 7 8 8 9 8 9 11 12 11 12 12 12 15 15 16 17 18 16 17 17 17 17 18 18 17 17 17 16 17 18 17
13 14 15 13 12 11 10 9 9 9 9 9 7 7 6 5 5 5 4 4 3 3 3 2 2 3 4 4 5 6 7 7 7 8 8 8 9 10 11 12 13 13 14 15 16 15 15 17 18 17 17 18 17 17 17 17 17 18 18 19 18 18
16 16 14 13 12 13 12 10 9 8 7 7 7 6 6 6 6 5 4 4 3 3 2 2 2 2 3 4 5 6 7 7 7 8 8 8 9 9 10 12 13 16 15 14 15 16 16 16 15 14 14 16 18 17 18 18 19 18 18 19 19 18
15 15 15 14 14 14 13 9 9 9 9 8 7 7 6 6 6 5 4 4 3 2 2 2 2 2 4 5 6 6 7 7 7 7 8 8 9 9 10 12 13 13 14 15 16 15 14 14 13 16 26 25 19 20 18 18 18 18 18 16 18 17
13 13 15 17 15 14 11 10 9 9 8 8 8 7 6 6 5 5 4 3 3 1 1 1 2 4 5 5 5 6 6 7 7 7 8 8 8 9 10 11 13 13 14 15 14 15 14 13 14 26 27 28 30 23 19 18 18 18 19 19 17 19
16 17 19 18 16 13 12 11 10 10 9 9 8 7 6 6 5 5 4 3 2 1 1 2 3 4 4 5 6 6 6 6 7 7 7 7 9 9 9 11 12 13 13 13 15 16 15 16 21 27 28 29 29 27 21 18 17 17 16 18 16 18
19 20 18 15 14 12 12 12 12 11 10 10 9 7 7 6 6 5 4 3 2 1 2 3 3 4 4 5 6 6 6 6 6 6 7 8 8 9 11 11 12 12 13 14 16 16 16 17 23 28 30 29 29 30 26 18 17 16 17 17 18 18
12 13 15 15 13 11 10 11 11 10 9 9 9 8 7 7 6 5 4 3 2 3 3 3 3 4 5 5 6 6 6 6 6 6 6 7 8 10 10 11 13 13 13 14 15 16 15 16 22 29 30 30 30 29 26 19 18 17 17 18 18 17
13 12 13 14 16 14 12 10 10 10 10 9 9 7 7 6 6 5 4 3 3 3 2 2 3 4 5 6 6 6 6 5 6 6 7 8 9 10 10 11 12 12 12 12 13 13 14 14 27 30 31 30 30 30 27 17 16 15 15 16 17 18
18 20 16 13 13 12 11 12 11 11 10 8 8 8 7 6 6 5 4 4 3 3 2 1 2 4 5 6 6 5 5 5 6 7 7 8 8 9 9 11 11 12 12 13 13 14 15 15 27 30 30 31 30 31 18 15 15 15 15 15 16 17
14 14 16 16 14 14 11 11 10 10 10 9 7 7 7 6 5 5 5 4 3 3 2 1 3 5 6 5 6 5 5 6 7 7 7 8 9 11 10 11 11 11 12 13 12 14 15 14 22 29 30 30 31 26 16 16 14 14 15 16 16 16
12 16 17 16 14 10 11 11 11 10 9 8 8 8 7 6 6 6 5 4 3 3 1 1 3 5 6 5 4 5 5 5 6 7 7 8 10 11 11 11 11 10 10 13 15 13 15 14 21 30 31 30 30 25 16 14 13 13 15 16 16 15
18 17 15 16 16 12 11 11 11 9 9 8 8 7 7 6 6 5 5 4 4 3 1 2 4 5 6 5 4 3 5 6 7 7 7 7 9 11 11 11 11 11 10 12 14 21 22 16 18 26 29 30 28 23 15 14 13 16 15 16 17 15
18 16 16 16 15 13 13 10 9 11 10 9 8 7 7 7 6 6 6 5 4 2 2 4 5 5 5 5 4 3 3 5 6 7 8 7 7 10 11 10 10 13 13 13 13 13 13 14 14 18 28 27 28 29 19 13 14 15 16 17 16 16
16 17 17 12 13 13 11 11 13 10 8 9 8 7 7 7 7 6 5 4 3 3 3 4 5 6 6 4 3 3 4 4 6 7 7 7 8 8 10 11 12 12 12 11 13 12 13 14 15 16 27 28 28 29 26 14 15 15 15 14 15 14
17 17 14 10 12 11 11 12 13 10 9 8 8 8 8 7 7 6 5 4 3 3 4 5 5 5 4 3 1 3 4 4 4 5 6 7 8 10 12 12 10 11 12 12 12 12 13 14 20 19 23 27 29 29 32 19 15 17 16 17 14 16
20 15 13 11 10 11 10 13 14 10 8 9 9 9 8 7 7 6 5 4 4 4 5 5 5 4 3 1 1 3 4 4 5 6 6 7 8 9 11 13 12 13 11 12 12 11 11 13 14 23 20 26 29 30 29 30 24 28 19 15 15 16
19 14 11 11 9 9 9 14 14 10 10 10 9 9 8 7 6 6 5 4 4 5 5 5 4 3 0 1 3 2 4 5 5 5 5 6 7 8 9 9 11 10 11 14 14 12 13 14 14 17 25 25 30 29 30 29 30 28 18 17 15 16
20 13 12 10 10 8 7 6 12 12 11 10 9 9 9 8 6 5 5 5 5 4 5 4 2 1 2 3 3 4 4 5 4 5 5 5 7 8 8 9 10 9 13 14 14 15 16 14 11 14 21 30 29 30 30 29 29 27 27 18 13 15
17 13 15 11 9 9 7 6 9 19 11 10 9 9 9 8 7 5 6 5 4 5 5 5 2 2 5 5 3 1 2 3 4 4 6 5 6 7 8 10 8 10 13 13 14 15 14 13 16 16 14 17 24 25 28 30 27 26 27 25 17 25
17 15 15 14 10 9 8 8 6 8 11 11 10 10 9 8 7 6 5 5 4 3 3 3 2 2 4 4 3 2 2 2 2 4 5 6 7 8 9 8 10 11 12 13 13 14 15 16 16 15 18 15 18 18 19 19 17 23 23 16 14 18
18 16 14 13 12 10 9 8 8 8 9 10 10 10 9 8 7 7 7 6 4 2 1 3 4 5 4 4 4 4 5 2 2 4 5 5 6 7 7 8 9 11 11 11 12 14 13 11 15 16 13 16 17 18 17 16 15 15 14 14 15 15
14 16 14 12 11 10 10 9 9 9 10 9 9 9 10 8 8 6 6 5 3 2 1 3 3 4 5 3 2 1 3 6 5 5 7 8 7 7 8 8 10 10 10 10 11 13 12 12 14 12 23 23 27 24 20 16 15 14 13 18 26 18
17 16 13 11 10 11 10 10 9 9 8 9 8 9 9 8 7 7 6 4 3 3 3 4 4 6 6 5 5 4 3 6 10 7 6 6 13 16 17 15 10 12 11 9 10 11 14 16 17 29 32 32 31 32 31 28 28 26 21 23 28 19
11 12 13 12 11 10 10 10 10 10 9 9 9 8 8 8 7 6 5 5 4 4 4 3 4 5 5 4 3 4 7 8 2 5 6 11 14 17 18 17 19 20 19 15 11 12 22 25 27 29 30 31 31 31 31 29 29 28 27 25 19 12
14 15 14 12 12 11 10 10 9 9 9 9 8 8 7 7 7 9 6 6 4 5 4 3 5 5 4 2 3 4 4 5 11 12 7 8 12 17 16 17 19 20 19 20 19 16 13 21 27 29 30 30 31 31 30 29 30 28 29 25 22 10
13 12 12 12 12 11 11 11 10 9 9 8 7 8 8 8 8 9 8 7 6 5 5 4 4 4 3 2 2 2 2 4 4 5 13 17 20 19 13 14 18 20 21 21 21 22 22 23 25 28 29 30 30 30 29 27 27 26 29 24 14 12
12 12 13 13 14 13 12 11 10 9 9 8 8 7 8 9 10 12 9 8 7 6 4 4 5 4 2 0 1 1 2 2 3 3 3 6 12 15 17 17 19 20 21 19 22 22 24 26 26 27 28 29 30 30 29 27 18 23 28 24 13 12
15 12 13 15 14 12 12 12 10 9 8 8 8 8 8 8 8 6 7 9 6 6 6 5 5 4 1 0 1 1 2 2 3 2 2 3 4 6 8 10 12 15 19 16 16 21 24 26 26 26 27 29 29 29 29 24 15 19 18 17 14 13
13 14 13 11 12 12 12 11 10 9 9 8 9 8 9 8 7 7 6 5 6 5 5 6 5 3 2 1 1 1 2 3 2 4 3 4 4 5 7 8 9 9 12 18 18 22 23 26 26 25 25 26 27 28 27 15 15 14 14 13 13 13
Wind_Direction
203 199 197 189 182 168 160 147 152 150 155 160 160 165 170 168 168 177 183 193 202 207 227 237 251 262 275 286 286 283 284 288 290 291 290 292 292 293 294 294 292 291 291 290 290 290 288 288 286 286 284 279 279 277 277 276 276 272 274 271 270 268
204 198 190 184 175 160 155 148 146 156 159 158 157 154 159 159 170 175 185 196 199 217 233 245 256 275 289 295 288 284 288 292 295 294 293 291 295 293 293 291 291 293 294 295 293 293 294 290 289 288 284 283 278 279 278 279 279 275 270 273 268 270
200 195 185 169 146 153 157 159 161 157 157 161 163 163 166 165 171 173 183 187 203 228 245 261 274 291 295 286 281 286 290 293 292 291 292 297 292 294 292 292 294 296 296 297 297 297 297 296 294 293 288 285 281 281 281 283 280 277 273 271 272 268
191 175 160 149 157 166 168 165 154 159 167 166 160 157 157 160 173 169 173 183 192 218 241 244 259 272 275 274 280 288 292 292 294 297 298 293 292 292 294 296 298 299 300 300 299 298 296 294 291 292 291 290 288 285 282 282 282 277 277 275 271 271
187 179 174 172 175 167 162 163 167 167 166 159 159 152 160 160 164 160 165 176 193 227 233 244 264 271 268 275 288 291 297 300 300 300 297 295 297 298 299 303 305 305 303 301 300 299 298 297 295 294 291 289 288 287 284 281 281 279 276 276 273 273
171 168 177 178 179 176 175 166 165 167 164 157 148 155 156 155 154 156 161 177 204 222 238 255 269 266 269 286 291 296 301 302 300 298 297 300 303 307 308 308 306 304 302 301 300 298 297 296 294 294 290 289 287 284 282 283 281 278 276 276 276 275
183 192 187 182 178 171 170 173 171 165 157 150 150 149 150 144 149 153 169 185 203 225 235 252 258 260 276 288 298 301 301 300 301 302 304 309 310 312 312 307 305 302 303 300 300 298 296 295 293 293 291 288 285 282 284 283 282 279 276 275 275 274
195 189 190 185 185 178 172 168 165 157 148 149 143 144 145 150 147 161 173 186 205 221 230 247 252 267 287 299 303 303 304 304 305 309 311 314 312 313 307 304 303 303 301 299 298 297 294 294 292 291 291 288 286 285 283 283 281 279 277 277 275 273
200 197 191 191 184 181 175 167 160 152 146 146 147 143 144 149 152 167 169 191 206 218 227 241 258 285 297 306 308 310 310 310 311 312 312 315 313 309 304 303 303 301 300 299 298 299 299 297 293 295 291 287 286 286 284 281 281 278 277 274 272 270
197 195 193 186 187 175 168 162 154 151 151 150 148 144 143 151 155 165 177 186 203 213 230 244 276 295 309 313 318 315 313 311 310 312 312 314 309 303 301 304 305 300 301 299 299 295 293 294 295 293 292 291 286 285 281 278 276 273 269 266 263 263
200 196 190 189 176 175 165 152 148 140 134 135 141 141 149 153 154 169 176 188 196 213 220 263 286 314 322 329 324 316 313 312 311 311 310 306 301 298 299 299 297 300 297 290 289 292 296 297 293 291 288 293 287 283 280 277 272 266 265 265 261 255
199 194 189 183 182 173 164 157 154 150 146 145 146 146 151 148 162 166 179 184 196 207 237 275 311 338 348 334 322 314 313 311 309 307 306 301 299 300 298 292 293 289 290 292 301 302 299 297 294 290 290 291 292 292 289 286 281 279 276 270 270 261
197 189 187 191 185 178 165 156 144 141 141 145 147 151 154 150 160 173 170 187 184 206 261 329 0 1 344 328 314 309 308 309 306 302 298 299 302 298 292 294 294 293 299 302 303 305 302 297 295 293 295 296 296 296 294 292 289 283 280 272 270 271
194 191 194 191 183 168 161 154 151 148 150 150 153 152 148 151 164 165 175 176 174 207 26 16 11 354 331 317 306 305 304 299 298 297 301 304 303 296 293 293 296 304 306 305 305 302 301 298 294 297 299 299 299 297 294 291 288 287 282 281 273 274
196 195 193 181 177 170 165 149 147 155 153 152 152 139 151 158 163 165 167 161 166 118 56 31 7 344 316 306 301 297 294 292 292 301 309 304 296 296 300 302 304 305 306 304 304 301 300 297 295 300 301 301 300 299 298 294 289 285 283 283 280 276
195 192 186 177 166 150 137 152 143 143 141 136 139 149 155 159 161 158 159 150 131 84 54 29 14 321 303 297 294 292 293 289 300 308 300 296 301 302 299 302 304 304 303 301 298 297 294 291 293 298 302 304 304 303 301 296 293 289 288 287 284 282
180 167 160 159 152 146 144 140 138 132 134 144 147 153 151 158 151 152 151 135 107 85 55 31 341 304 294 292 288 286 284 299 310 310 307 310 309 308 306 307 305 301 295 292 292 291 289 287 295 302 304 307 307 305 305 300 300 297 292 288 284 283
178 177 167 139 136 145 147 142 143 136 140 141 145 148 152 149 149 146 142 124 107 94 64 40 313 292 285 287 285 281 306 320 319 314 310 308 303 298 299 300 297 295 294 291 290 289 287 286 296 302 304 308 311 310 310 306 298 291 287 285 286 285
167 152 129 136 141 143 148 141 135 131 133 141 146 145 148 148 148 145 135 120 116 102 97 332 285 280 279 280 282 302 321 327 319 313 312 308 306 305 303 299 296 292 291 290 288 287 288 286 293 300 308 312 312 313 307 299 290 289 291 290 292 293
122 121 137 139 143 138 133 138 137 134 134 140 146 148 147 151 147 142 131 126 126 118 138 241 267 269 273 272 285 312 319 313 308 304 313 309 308 304 300 299 293 285 283 289 290 285 286 288 295 302 308 314 314 314 309 304 302 295 297 296 293 290
140 139 131 137 138 147 138 136 136 132 134 141 148 149 148 153 146 140 135 131 130 127 174 237 249 257 264 278 285 304 307 312 310 304 306 300 298 296 297 296 292 290 285 285 285 290 294 287 293 300 309 316 317 319 314 309 301 300 298 296 294 284
125 138 144 149 148 139 142 138 137 139 137 145 147 147 152 150 142 135 126 126 128 144 208 238 240 244 252 269 280 284 291 301 304 308 309 301 296 296 297 286 290 296 299 298 292 293 287 291 293 304 317 323 321 320 318 310 303 298 294 293 283 282
147 151 153 142 137 141 138 142 140 139 141 144 143 148 147 138 131 126 126 125 140 174 217 242 234 240 251 248 267 295 304 307 311 309 304 302 299 295 295 292 299 300 303 304 306 303 301 296 304 315 327 325 324 322 322 310 306 299 295 294 290 284
115 105 106 122 135 139 144 147 141 138 143 140 141 144 135 129 129 124 127 143 156 192 220 226 242 246 239 250 279 319 315 308 305 298 298 298 297 296 298 302 305 310 302 302 306 302 303 309 323 326 322 323 323 324 322 318 306 309 310 308 302 300
142 139 132 138 139 145 153 143 133 138 138 135 141 134 131 127 125 126 138 150 174 201 213 231 229 239 231 235 8 334 312 314 315 309 302 296 296 291 300 311 304 303 296 313 319 315 315 319 320 323 325 329 329 326 324 321 318 314 314 309 303 300
124 125 132 140 143 147 155 150 136 140 134 134 135 130 124 123 122 131 146 166 187 194 220 223 226 230 222 67 32 349 323 320 310 304 300 299 298 294 295 293 303 300 312 325 323 325 327 323 319 330 336 333 327 326 326 323 320 319 319 313 304 302
145 133 135 144 139 144 141 158 135 133 131 138 138 139 131 127 128 140 157 169 182 204 213 220 214 196 87 57 43 1 330 319 318 310 306 300 298 298 297 300 300 307 326 323 326 328 325 323 328 332 328 326 328 332 330 326 325 325 323 315 304 302
111 131 136 137 142 139 148 143 148 131 139 136 137 134 127 129 136 156 170 182 194 209 205 190 167 87 57 50 37 347 289 285 298 293 297 292 297 301 296 299 300 324 328 325 324 327 324 325 332 327 323 328 333 333 331 330 329 328 323 318 312 310
139 148 142 142 150 144 142 135 127 119 130 136 137 128 125 132 147 150 158 182 201 218 201 150 117 92 62 42 17 328 284 285 269 282 279 296 308 301 298 292 323 327 325 327 322 323 325 329 334 335 333 329 337 337 333 333 330 330 325 317 322 323
149 148 148 144 151 147 139 135 129 128 128 132 129 123 127 141 155 151 159 173 187 191 112 85 67 75 73 51 10 332 326 297 286 287 295 302 302 294 300 313 326 329 326 323 324 325 317 322 339 335 330 341 340 339 337 334 333 332 326 331 334 339
148 150 144 138 140 140 137 133 130 134 134 129 123 129 141 149 149 144 151 168 170 134 97 76 60 57 60 52 51 279 266 289 297 296 295 310 305 309 321 323 330 326 323 320 327 325 318 334 339 335 342 341 342 343 343 340 340 334 334 344 348 339
137 140 135 132 137 137 135 134 133 136 132 122 128 143 147 145 140 145 147 154 145 128 99 70 53 51 44 21 357 341 306 260 271 292 300 302 330 336 338 340 336 335 332 325 335 332 340 340 338 339 343 345 346 348 348 349 348 342 343 352 353 343
134 122 126 133 138 136 135 135 140 141 134 133 143 155 156 149 140 137 141 142 141 132 103 95 73 58 48 24 2 347 332 331 293 249 300 337 343 341 341 345 344 343 343 344 339 332 345 344 344 346 347 348 350 351 352 354 353 348 349 354 354 338
156 149 142 141 142 138 138 133 141 138 135 140 151 159 162 165 149 141 148 148 152 119 111 99 95 80 58 35 2 339 343 348 333 330 312 343 357 346 342 342 344 346 348 348 349 345 344 350 350 350 351 352 353 355 354 357 354 354 353 349 351 349
154 145 141 142 140 138 138 138 142 138 137 142 151 160 164 171 152 135 137 151 141 127 112 103 93 80 78 53 348 330 331 334 343 330 323 328 335 341 345 345 349 349 350 349 352 349 354 355 353 353 354 355 355 356 356 357 356 358 358 350 351 359
139 140 141 141 142 139 139 137 138 140 143 147 156 160 165 152 142 129 141 141 146 128 118 107 93 89 77 24 310 268 293 296 281 278 295 310 321 334 338 342 347 347 346 348 351 349 355 357 357 355 356 357 357 358 356 354 348 357 5 8 352 349
132 132 141 140 139 138 140 136 138 137 138 145 145 151 149 139 134 136 134 136 132 117 115 105 94 94 81 128 257 272 288 285 277 293 292 290 305 310 311 312 322 331 338 344 346 347 356 359 358 358 357 358 357 359 356 351 359 2 349 352 352 343
133 137 139 137 137 137 130 127 131 135 141 143 151 154 151 141 139 135 137 134 126 114 111 101 102 93 106 188 264 306 304 295 298 307 300 301 298 288 292 303 313 314 313 338 344 349 356 358 358 357 357 356 357 2 2 0 357 353 346 337 338 337